This is the latest recevied weather packets stored in our database for station/object KB0BS-13. If no packets are shown the sender has not sent any weather packets the latest 10 day(s).
| Time | Temp. | Humidity | Pressure | Rain* | Wind** | Luminosity | Snow |
|---|---|---|---|---|---|---|---|
| 1777418596 | 6.67° C | 85% | 1012.6 hPa | 0 mm | - | 23 W/m² | - |
| 1777418292 | 6.67° C | 84% | 1012.4 hPa | 0 mm | - | 36 W/m² | - |
| 1777417988 | 6.67° C | 85% | 1012.5 hPa | 0 mm | - | 24 W/m² | - |
| 1777417684 | 6.67° C | 86% | 1012.5 hPa | 0 mm | - | 33 W/m² | - |
| 1777417379 | 6.67° C | 84% | 1012.3 hPa | 0 mm | - | 27 W/m² | - |
| 1777417076 | 6.67° C | 85% | 1012.2 hPa | 0 mm | - | 32 W/m² | - |
| 1777416772 | 6.67° C | 87% | 1012.1 hPa | 0 mm | - | 40 W/m² | - |
| 1777416468 | 6.67° C | 87% | 1012.2 hPa | 0 mm | - | 47 W/m² | - |
| 1777416164 | 6.67° C | 88% | 1012.2 hPa | 0 mm | - | 38 W/m² | - |
| 1777415864 | 6.67° C | 88% | 1011.9 hPa | 0 mm | - | 42 W/m² | - |
| 1777415559 | 7.22° C | 87% | 1011.8 hPa | 0 mm | - | 48 W/m² | - |
| 1777415256 | 7.22° C | 87% | 1011.7 hPa | 0 mm | - | 89 W/m² | - |
| 1777414951 | 7.22° C | 87% | 1011.5 hPa | 0 mm | - | 72 W/m² | - |
| 1777414650 | 7.22° C | 88% | 1011.1 hPa | 0 mm | - | 77 W/m² | - |
| 1777414346 | 7.78° C | 88% | 1011.1 hPa | 0 mm | - | 73 W/m² | - |
| 1777414040 | 8.33° C | 87% | 1011.1 hPa | 0 mm | - | 71 W/m² | - |
| 1777413735 | 8.33° C | 87% | 1010.8 hPa | 0 mm | - | 107 W/m² | - |
| 1777413431 | 8.33° C | 87% | 1010.8 hPa | 0 mm | - | 105 W/m² | - |
| 1777413128 | 8.89° C | 86% | 1010.5 hPa | 0 mm | - | 108 W/m² | - |
| 1777412822 | 8.89° C | 88% | 1010.5 hPa | 0 mm | - | 155 W/m² | - |
| 1777412521 | 8.89° C | 88% | 1010.3 hPa | 0 mm | - | 167 W/m² | - |
| 1777412219 | 8.89° C | 91% | 1010.2 hPa | 0 mm | - | 207 W/m² | - |
| 1777411915 | 8.33° C | 92% | 1010.3 hPa | 0 mm | - | 200 W/m² | - |
| 1777411615 | 8.33° C | 93% | 1010.3 hPa | 0 mm | - | 128 W/m² | - |
| 1777411310 | 8.33° C | 93% | 1010.2 hPa | 0 mm | - | 55 W/m² | - |
* Rain latest hour (hover to see other rain measurements)
** Current wind speed in m/s (hover to see current wind gust speed)